Regional Weather Roundup
Issued by NWS Pendleton, OR

Home | Current Version | Previous Version | Text Only | Print | Product List | Glossary On
Versions: 1 2 3 4 5 6 7 8 9 10 11 12 13 14 15 16 17 18 19 20 21 22 23 24 25 26 27 28 29 30 31 32 33 34 35 36 37 38 39 40 41 42 43 44 45 46 47 48 49 50
000
ASUS46 KPDT 300325
RWRPDT
PENDLETON REGIONAL WEATHER ROUNDUP
NATIONAL WEATHER SERVICE PENDLETON OREGON
800 PM PDT FRI JUL 29 2016

NOTE: FAIR INDICATES FEW OR NO CLOUDS BELOW 12,000 FEET WITH NO
SIGNIFICANT WEATHER AND/OR OBSTRUCTIONS TO VISIBILITY.

# INDICATES UNOFFICIAL STATION AND DATA

WAZ520-300410-
EAST SLOPES OF WASHINGTON CASCADES

CITY            SKY/WX      TMP DP  RH  WIND    PRES   REMARKS
#CLE ELUM HS    N/A         79  55  44  W9      29.83S
#CLE ELUM 2NW   N/A         76  53  45  SW3     N/A
#GLENWOOD       N/A         81  50  34  SW6     29.72S
#MANASTASH CYN  N/A         78  41  27  CALM    29.88S
#NELSON 3SW     N/A         74  52  46  CALM    29.94F
#NILE           N/A         80  51  36  W2      29.05R
#RONALD 2NW     N/A         79  N/A N/A W1      29.99F
#TEANAWAY 4NE   N/A         80  58  47  N1      N/A
#TROUT LAKE 1NE N/A         81  50  34  W7      29.74S
$$

WAZ521-300410-
SIMCOE HIGHLANDS

CITY            SKY/WX      TMP DP  RH  WIND    PRES   REMARKS
#CENTERVILLE 1SWN/A         83  57  41  W14     29.66F
#GOLDENDALE 1NE N/A         88  35  15  CALM    N/A
#GOLDENDALE 4W  N/A         87  63  45  W7      29.85R
#GOODNOE HILLS  N/A         90  56  32  W15     29.69R HX 88
#LYLE 6NE       N/A         84  60  44  SW10    29.70S
$$

WAZ026-300410-
KITTITAS VALLEY

CITY            SKY/WX      TMP DP  RH  WIND    PRES   REMARKS
ELLENSBURG AP   CLEAR       85  50  30  NW18G26 29.83R
#ELLENSBURG CWU N/A         84  50  31  NW15    29.67S
#ELLENSBURG 3NE N/A         81  55  41  N6      29.83S
#ELLENSBURG     N/A         85  51  31  NW5     N/A
#KITTITAS 4N    N/A         84  52  33  W15     29.85F
#KITTITAS 3S    N/A         80  52  38  NW7     29.69S
#THORP 6N       N/A         79  53  41  W23G37  29.72S
$$

WAZ027-300410-
YAKIMA VALLEY

CITY            SKY/WX      TMP DP  RH  WIND    PRES   REMARKS
SUNNYSIDE AP    CLEAR       84  72  67  CALM    29.70F
YAKIMA AIRPORT  CLEAR       93  44  19  NW15    29.75R HX 89
YAKIMA-VAGABOND N/A         91  44  20  N7      29.76R HX 87
#DONALD 2NE     N/A         89  21   8  NW2     28.59R
#GRANDVIEW      N/A         90  52  27  CALM    29.66F HX 87
#MABTON         N/A         92  51  25  E1      29.67F HX 89
#NACHES 2SW     N/A         83  47  28  W13     29.83S
#TERRACE HTS    N/A         90  49  25  NW6     29.64R HX 87
#TOPPENISH      N/A         91  58  33  N2      29.58R HX 90
#WEST VALLEY    N/A         89  46  23  NW9     29.65S
#W YAKIMA       N/A         87  47  25  W7      29.68R
#WHITE SWAN 5E  N/A         90  57  33  N6      29.66R HX 89
#WILEY CITY 3W  N/A         87  38  18  CALM    29.75R
$$

WAZ028-300410-
LOWER COLUMBIA BASIN...WASHINGTON

CITY            SKY/WX      TMP DP  RH  WIND    PRES   REMARKS
PASCO           CLEAR       100 48  17  SE9     29.67F HX 96
PROSSER AWOS    N/A         95  46  19  E6      29.71F HX 91
RICHLAND AWOS   CLEAR       98  52  21  E6      29.67F HX 95
#BENTON CITY    N/A         97  45  17  S3      29.55F HX 93
#CONNELL 5N     N/A         95  49  21  CALM    29.65F HX 92
#CONNELL 5NW    N/A         96  56  26  CALM    29.61F HX 94
#ELTOPIA 6NW    N/A         92  61  36  CALM    28.69F HX 92
#KAHLOTUS       N/A         96  46  18  N2      29.64F HX 92
#KENNEWICK 3S   N/A         95  51  23  CALM    29.65F HX 92
#PATERSON       N/A         96  53  24  CALM    29.62F HX 94
#SAGEMOOR 2W    N/A         93  62  36  CALM    29.50F HX 94
#TOUCHET 2S     N/A         90  65  44  CALM    29.63F HX 92
#WEST PASCO     N/A         96  57  27  SE1     29.62F HX 95
$$

WAZ029-300410-
FOOTHILLS OF THE BLUES...WASHINGTON

CITY            SKY/WX      TMP DP  RH  WIND    PRES   REMARKS
WALLA WALLA AP  CLEAR       94  44  18  W5      29.74F HX 90
#CLYDE 6NW      N/A         89  47  24  CALM    29.64F
#DAYTON SCHOOL  N/A         92  49  23  CALM    29.78S HX 89
#LOWDEN 2SE     N/A         92  63  38  CALM    29.65F HX 93
#PLEASANT VIEW 1N/A         93  43  18  CALM    29.67F HX 89
#PRESCOTT       N/A         92  53  27  CALM    29.63F HX 90
#WHITMAN COLLEGEN/A         96  52  23  CALM    29.70F HX 93
#WAITSBURG 5S   N/A         91  47  22  CALM    29.74F HX 88
#WAITSBURG 8N   N/A         81  24  12  N1      29.73S
#WALLA WALLA U  N/A         98  53  22  CALM    29.64F HX 96
#WHITMAN MISSIONN/A         95  60  31  CALM    29.65F HX 95
$$

WAZ030-300410-
BLUE MOUNTAINS...WASHINGTON

CITY            SKY/WX      TMP DP  RH  WIND    PRES   REMARKS
#DIXIE 5SE      N/A         86  48  27  W5      29.82F
$$

ORZ009-041-WAZ024-300410-
COLUMBIA RIVER GORGE

CITY            SKY/WX      TMP DP  RH  WIND    PRES   REMARKS
HOOD RIVER AP   CLEAR       88  55  33  CALM    29.81S
THE DALLES AP   CLEAR       93  53  26  W16G29  29.74R HX 91
#ARLINGTON AIRPON/A         91  58  33  W16     29.67S HX 90
#LYLE           N/A         88  63  43  NW22    29.74S
#MARYHILL 2W    N/A         87  58  38  W10     N/A
#MOSIER 1S      N/A         86  40  20  W8      29.79S
#MURDOCK        N/A         90  60  37  W10     29.68R HX 90
#RUFUS DOT      N/A         94  57  29  W16     N/A    HX 93
#SMITHVILLE     N/A         90  60  37  W10     29.60F HX 90

$$

ORZ510-300410-
NORTH CENTRAL OREGON

CITY            SKY/WX      TMP DP  RH  WIND    PRES   REMARKS
#ANTELOPE       N/A         86  41  21  NW3     29.52R
#CHENOWITH 1W   N/A         84  54  36  NW38    N/A
#COW CYN RST AREN/A         87  N/A N/A NW10    N/A
#DUFUR 9E       N/A         83  52  34  W16     29.76S
#GRASS VALLEY 1SN/A         85  46  26  W14G25  29.83R
#KENT DOT       N/A         86  40  20  N16     N/A
#MAUPIN SCHOOL  N/A         90  48  24  W8      29.83R HX 87
#SHANIKO 5WSW   N/A         83  38  20  N18     N/A
#SHANIKO 4NW    N/A         81  53  38  NW15    29.97S
#TYGH VALLEY 2NEN/A         89  47  24  N10     29.71R
#WAPANITIA AIRPON/A         84  48  29  W14     29.73R
#WASCO DOT      N/A         88  58  36  W12     N/A
#WASCO AIRPORT  N/A         88  52  29  W20     N/A
#WASCO 5NE      N/A         85  58  40  W8      29.69R
$$

ORZ511-300410-
CENTRAL OREGON

CITY            SKY/WX      TMP DP  RH  WIND    PRES   REMARKS
BEND AIRPORT    CLEAR       84  45  26  N9      29.94R
MADRAS AIRPORT  CLEAR       90  34  14  N18G25  29.90S HX 86
PRINEVILLE AP   CLEAR       84  39  20  NW13    29.93R
REDMOND AIRPORT CLEAR       88  42  20  NW15    29.92R
#ASHWOOD SCHOOL N/A         88  36  16  NW1     29.85R
#BEND 1SW       N/A         81  48  32  CALM    N/A
#BEND-AWBREY    N/A         84  48  29  W1      29.71S
#CULVER         N/A         85  45  25  N2      29.65R
#CULVER 8W      N/A         87  36  16  W1      29.93S
#LAKE BILLY CHINN/A         87  N/A N/A N9      29.91R
#MADRAS 4S      N/A         86  25  11  N12     29.97R
#POWELL BUTTE 3EN/A         88  49  26  NW8     N/A
#POWELL BUTTE   N/A         82  50  33  NW2     29.84R
#PRINEVILLE 3N  N/A         82  45  27  N8      29.79R
#WARM SPRINGS   N/A         88  48  25  CALM    29.81R

$$


ORZ509-300410-
EAST SLOPES OF OREGON CASCADES

CITY            SKY/WX      TMP DP  RH  WIND    PRES   REMARKS
SISTERS AWOS    N/A         84  46  27  W20G26  29.92R
#BLUE BOX PASS  N/A         71  N/A N/A NW5     N/A
#CAMP SHERMAN   N/A         80  42  26  CALM    29.90R
#LA PINE DOT    N/A         82  40  22  W8      N/A
#LA PINE 4NW    N/A         80  51  36  CALM    29.79R
#LAVA BUTTE DOT N/A         81  42  25  CALM    N/A
#SISTERS AIRPOR N/A         82  57  43  N13     30.17S
#SISTERS ODOT   N/A         85  N/A N/A SW6     N/A
#SISTERS 3N     N/A         80  42  26  W3      29.94R
#SUNRIVER       N/A         81  49  33  SW1     29.89R
#SUTTLE LK DOT  N/A         76  49  39  W14G26  N/A
#TUMALO 3W      N/A         81  47  30  NW14    29.58S
#WANOGA BUTTE D N/A         72  42  34  NW6     N/A

$$

ORZ044-300410-
LOWER COLUMBIA BASIN...OREGON

CITY            SKY/WX      TMP DP  RH  WIND    PRES   REMARKS
HERMISTON       CLEAR       97  48  19  CALM    29.68F HX 94
#BOARDMAN 8SW   N/A         90  62  39  SW8     29.65F HX 90
#ECHO 8SW       N/A         95  56  27  W2      29.71F HX 93
#I-84 EX 198 DOTN/A         97  57  27  CALM    N/A    HX 96
#UMATILLA       N/A         100 49  18  CALM    29.57F HX 97
$$

ORZ507-300410-
NORTHERN FOOTHILLS OF THE BLUES

CITY            SKY/WX      TMP DP  RH  WIND    PRES   REMARKS
PENDLETON AIRPT CLEAR       94  38  14  N5      29.76F HX 90
#ADAMS 3WNW     N/A         89  40  18  CALM    29.66S
#ATHENA         N/A         88  51  28  CALM    29.70S
#CAYUSE         N/A         94  42  17  N3      29.65S HX 90
#HELIX SCHOOL   N/A         89  40  18  CALM    29.67F
#HOLDMAN 5SE    N/A         92  42  18  CALM    29.75F HX 88
#HOLDMAN 6E     N/A         92  41  17  CALM    29.49S HX 88
#M-F GROVE ELEM N/A         96  52  23  CALM    29.73S HX 93
#M-FREEWATER 5SEN/A         90  62  39  CALM    29.75F HX 90
#PENDLETON DNTN N/A         89  46  23  CALM    29.74F
#PDT AQUATIC CTRN/A         91  40  17  N2      29.56S HX 87
#PDT SUNRIDGE   N/A         96  46  18  CALM    29.75F HX 92
#PENDLETON 7NW  N/A         93  55  28  CALM    31.70S HX 91
#PILOT ROCK 1S  N/A         89  45  22  CALM    29.80S
#PILOT ROCK     N/A         95  50  22  CALM    29.82F HX 92
#TUTUILLA       N/A         91  43  19  CALM    29.70F HX 87
#UMAPINE 2E     N/A         84  72  67  CALM    29.67F
#WESTON SCHOOL  N/A         91  44  20  CALM    29.61R HX 87

$$

ORZ508-300410-
SOUTHERN FOOTHILLS OF THE BLUES

CITY            SKY/WX      TMP DP  RH  WIND    PRES   REMARKS
LEXINGTON       CLEAR       91  46  21  W12     29.82R HX 87
#CONDON 5W      N/A         82  41  23  NW12    29.89S
#HEPPNER EOC    N/A         91  46  21  W10     29.61S HX 87
#HEPPNER 4NE    N/A         89  46  23  N1      29.67S
#LEXINGTON 2SE  N/A         92  51  25  CALM    29.75R HX 89
#OLEX 4N        N/A         90  55  31  W21     29.74S HX 88
#RUGGS 5NE      N/A         88  31  13  W8      30.07S
#RUGGS 2SW      N/A         87  42  21  NW9     29.69R

$$

ORZ502-503-300410-
BLUE MOUNTAINS

CITY            SKY/WX      TMP DP  RH  WIND    PRES   REMARKS
MEACHAM         CLEAR       82  38  21  CALM    29.96R
#BATTLE MTN DOT N/A         80  49  34  N2      N/A
#CUTSFORTH PARK N/A         72  55  55  CALM    29.75S
#GREENHORN 9SW  N/A         85  34  16  CALM    26.11F
#HARDMAN 10S    N/A         61  34  36  N5      30.22S
#HEPPNER 15SE   N/A         80  47  31  CALM    29.89S
#LADD CYN SMT   N/A         86  51  30  NW7     N/A
#LADD CREEK ODOTN/A         82  54  38  W1      N/A
#LONG CREEK HS  N/A         85  46  26  CALM    N/A
#N POWDER DOT   N/A         85  54  35  N9      N/A
#PIKES PEAK     N/A         85  46  26  W2      27.99S
#TOLLGATE       N/A         71  48  44  CALM    29.91S
#TROY SCHOOL    N/A         92  56  30  CALM    29.50S HX 90
#UKIAH          N/A         84  49  30  N2      29.64S
#WESTON 4E      N/A         86  47  26  CALM    29.64F
$$

ORZ505-300410-
JOHN DAY BASIN

CITY            SKY/WX      TMP DP  RH  WIND    PRES   REMARKS
JOHN DAY        CLEAR       88  33  14  NW6     29.91F
#DAYVILLE SCHOOLN/A         93  35  13  CALM    29.81S HX 89
#MITCHELL       N/A         90  53  28  NW2     30.06R HX 88
#MITCHELL 8NW   N/A         88  43  21  NW3     29.87R
#MONUMENT HS    N/A         93  42  17  N2      29.65R HX 89
#MT. VERNON 5SE N/A         86  38  18  CALM    29.89S
#SPRAY SCHOOL   N/A         96  N/A N/A N3      N/A
$$

ORZ506-300410-
OCHOCO AND JOHN DAY HIGHLANDS

CITY            SKY/WX      TMP DP  RH  WIND    PRES   REMARKS
#BUCK CREEK DOT N/A         91  43  19  NW15    N/A    HX 87
#HORSE RIDGE DO N/A         85  41  21  NW17    N/A
#KEYES SMT DOT  N/A         87  37  17  N9      N/A
#PAULINA SCHOOL N/A         90  35  14  NW7     N/A    HX 86
#PINE MTN OBS   N/A         74  44  34  NW7     N/A
#PRAIRIE CITY   N/A         87  35  16  CALM    30.06S
#SENECA         N/A         84  N/A N/A CALM    N/A
#SENECA 9NW     N/A         82  37  20  CALM    29.67S
$$

ORZ049-300410-
GRANDE RONDE VALLEY

CITY            SKY/WX      TMP DP  RH  WIND    PRES   REMARKS
LA GRANDE       CLEAR       84  46  27  N9      29.86R
#COVE           N/A         85  57  39  CALM    29.91S
#COVE SCHOOL    N/A         85  54  35  CALM    29.89R
#COVE 6NW       N/A         82  55  40  NW5     29.73S
#ELGIN 3N       N/A         87  40  19  W1      29.84F
#ELGIN 1E       N/A         91  51  26  CALM    N/A    HX 88
#IMBLER SCHOOL  N/A         83  51  33  NW1     29.82S
#ISLAND CITY 4N N/A         80  57  45  CALM    29.87S
#LADD CYN DOT   N/A         88  56  34  NW2     N/A
#UNION 1S       N/A         83  57  41  CALM    29.58R
$$

ORZ050-300410-
WALLOWA COUNTY

CITY            SKY/WX      TMP DP  RH  WIND    PRES   REMARKS
JOSEPH AIRPORT  CLEAR       81  39  22  W3      N/A
#ENTERPRISE AP  N/A         49  29  46  CALM    29.89S
#ENTERPRISE HS  N/A         83  52  34  CALM    29.93R
#IMNAHA SCHOOL  N/A         86  52  31  CALM    29.77S
#IMNAHA 10S     N/A         82  50  33  N1      29.85R
#JOSEPH 3N      N/A         78  49  36  CALM    29.97S
#JOSEPH 3W      N/A         74  45  35  W3      29.85F
#LOSTINE        N/A         81  51  35  CALM    29.49S
#LOSTINE 3SE    N/A         80  43  27  CALM    29.90R
#MT HOWARD 8000 N/A         66  38  36  NW3     30.30F
#PROMISE 1S     N/A         85  53  33  S1      29.76F
#WALLOWA SCHOOL N/A         86  53  32  CALM    29.84R



$$



USA.gov is the U.S. government's official web portal to all federal, state and local government web resources and services.